Time,TemperatureF,DewpointF,PressureIn,WindDirection,WindDirectionDegrees,WindSpeedMPH,WindSpeedGustMPH,Humidity,HourlyPrecipIn,Conditions,Clouds,dailyrainin,SoftwareType,DateUTC
2013-07-13 00:01:00,67.7,61.0,30.15,SSE,161,1.0,2.0,79,0.00,,,0.00,Wunderground v.1.15,2013-07-13 04:01:00,
2013-07-13 00:02:00,67.7,61.0,30.15,SSE,160,1.0,2.0,79,0.00,,,0.00,Wunderground v.1.15,2013-07-13 04:02:00,
2013-07-13 00:06:00,67.8,61.0,30.15,SSE,161,1.0,2.0,79,0.00,,,0.00,Wunderground v.1.15,2013-07-13 04:06:00,
2013-07-13 00:07:00,67.8,61.0,30.15,SSE,161,1.0,1.0,79,0.00,,,0.00,Wunderground v.1.15,2013-07-13 04:07:00,
2013-07-13 00:08:00,67.8,61.0,30.15,SSE,160,1.0,2.0,79,0.00,,,0.00,Wunderground v.1.15,2013-07-13 04:08:00,
2013-07-13 00:14:00,67.8,60.7,30.16,SE,144,1.0,4.0,78,0.00,,,0.00,Wunderground v.1.15,2013-07-13 04:14:00,
2013-07-13 00:19:00,67.9,60.8,30.16,SE,144,1.0,1.0,78,0.00,,,0.00,Wunderground v.1.15,2013-07-13 04:19:00,
2013-07-13 00:25:00,67.9,60.4,30.16,SSE,153,1.0,4.0,77,0.00,,,0.00,Wunderground v.1.15,2013-07-13 04:25:00,
2013-07-13 00:31:00,67.9,60.4,30.16,SSE,147,1.0,1.0,77,0.00,,,0.00,Wunderground v.1.15,2013-07-13 04:31:00,
2013-07-13 00:36:00,67.7,59.9,30.16,SSE,147,0.0,1.0,76,0.00,,,0.00,Wunderground v.1.15,2013-07-13 04:36:00,
2013-07-13 00:42:00,67.5,60.0,30.16,SSE,147,0.0,0.0,77,0.00,,,0.00,Wunderground v.1.15,2013-07-13 04:42:00,
2013-07-13 00:47:00,67.4,59.9,30.16,SSE,147,0.0,3.0,77,0.00,,,0.00,Wunderground v.1.15,2013-07-13 04:47:00,
2013-07-13 00:53:00,67.1,59.6,30.16,SE,146,0.0,3.0,77,0.00,,,0.00,Wunderground v.1.15,2013-07-13 04:53:00,
2013-07-13 00:58:00,66.8,59.7,30.16,SE,146,0.0,0.0,78,0.00,,,0.00,Wunderground v.1.15,2013-07-13 04:58:00,
2013-07-13 01:04:00,66.6,59.5,30.15,SSE,148,0.0,4.0,78,0.00,,,0.00,Wunderground v.1.15,2013-07-13 05:04:00,
2013-07-13 01:09:00,66.4,59.3,30.15,SSE,148,1.0,1.0,78,0.00,,,0.00,Wunderground v.1.15,2013-07-13 05:09:00,
2013-07-13 01:15:00,66.2,59.5,30.16,SSE,148,0.0,1.0,79,0.00,,,0.00,Wunderground v.1.15,2013-07-13 05:15:00,
2013-07-13 01:22:00,65.9,59.6,30.16,SSE,148,0.0,0.0,80,0.00,,,0.00,Wunderground v.1.15,2013-07-13 05:22:00,
2013-07-13 01:27:00,65.6,59.6,30.15,SSE,148,0.0,0.0,81,0.00,,,0.00,Wunderground v.1.15,2013-07-13 05:27:00,
2013-07-13 01:33:00,65.4,59.8,30.15,SSE,148,0.0,0.0,82,0.00,,,0.00,Wunderground v.1.15,2013-07-13 05:33:00,
2013-07-13 01:39:00,65.1,59.5,30.15,SSE,148,0.0,0.0,82,0.00,,,0.00,Wunderground v.1.15,2013-07-13 05:39:00,
2013-07-13 01:45:00,64.8,59.2,30.16,SSE,148,0.0,0.0,82,0.00,,,0.00,Wunderground v.1.15,2013-07-13 05:45:00,
2013-07-13 01:52:00,64.4,59.1,30.16,SSE,147,0.0,0.0,83,0.00,,,0.00,Wunderground v.1.15,2013-07-13 05:52:00,
2013-07-13 01:57:00,64.1,59.2,30.16,SSE,147,0.0,0.0,84,0.00,,,0.00,Wunderground v.1.15,2013-07-13 05:57:00,
2013-07-13 02:02:00,63.9,59.0,30.16,SSE,147,0.0,0.0,84,0.00,,,0.00,Wunderground v.1.15,2013-07-13 06:02:00,
2013-07-13 02:07:00,63.6,59.0,30.16,SSE,148,0.0,0.0,85,0.00,,,0.00,Wunderground v.1.15,2013-07-13 06:07:00,
2013-07-13 02:13:00,63.4,59.1,30.16,SSE,147,0.0,0.0,86,0.00,,,0.00,Wunderground v.1.15,2013-07-13 06:13:00,
2013-07-13 02:18:00,63.3,59.0,30.16,SSE,148,0.0,0.0,86,0.00,,,0.00,Wunderground v.1.15,2013-07-13 06:18:00,
2013-07-13 02:23:00,63.2,58.9,30.16,SSE,148,0.0,2.0,86,0.00,,,0.00,Wunderground v.1.15,2013-07-13 06:23:00,
2013-07-13 02:29:00,63.1,59.2,30.17,SSE,148,0.0,0.0,87,0.00,,,0.00,Wunderground v.1.15,2013-07-13 06:29:00,
2013-07-13 02:35:00,62.9,59.0,30.17,SSE,148,0.0,0.0,87,0.00,,,0.00,Wunderground v.1.15,2013-07-13 06:35:00,
2013-07-13 02:40:00,62.8,58.9,30.17,SSE,148,0.0,0.0,87,0.00,,,0.00,Wunderground v.1.15,2013-07-13 06:40:00,
2013-07-13 02:45:00,62.7,58.8,30.16,SSE,147,0.0,1.0,87,0.00,,,0.00,Wunderground v.1.15,2013-07-13 06:45:00,
2013-07-13 02:50:00,62.6,59.0,30.16,SSE,148,0.0,1.0,88,0.00,,,0.00,Wunderground v.1.15,2013-07-13 06:50:00,
2013-07-13 02:55:00,62.5,58.9,30.16,SSE,147,0.0,1.0,88,0.00,,,0.00,Wunderground v.1.15,2013-07-13 06:55:00,
2013-07-13 03:01:00,62.4,58.8,30.16,SSE,148,0.0,0.0,88,0.00,,,0.00,Wunderground v.1.15,2013-07-13 07:01:00,
2013-07-13 03:07:00,62.3,59.0,30.16,SSE,147,0.0,0.0,89,0.00,,,0.00,Wunderground v.1.15,2013-07-13 07:07:00,
2013-07-13 03:12:00,62.2,58.6,30.16,SSE,148,0.0,0.0,88,0.00,,,0.00,Wunderground v.1.15,2013-07-13 07:12:00,
2013-07-13 03:18:00,62.0,58.4,30.16,SE,146,0.0,0.0,88,0.00,,,0.00,Wunderground v.1.15,2013-07-13 07:18:00,
2013-07-13 03:23:00,61.7,58.1,30.16,SSE,148,0.0,0.0,88,0.00,,,0.00,Wunderground v.1.15,2013-07-13 07:23:00,
2013-07-13 03:29:00,61.6,58.3,30.16,SSE,148,0.0,0.0,89,0.00,,,0.00,Wunderground v.1.15,2013-07-13 07:29:00,
2013-07-13 03:34:00,61.4,58.1,30.16,SE,146,0.0,0.0,89,0.00,,,0.00,Wunderground v.1.15,2013-07-13 07:34:00,
2013-07-13 03:40:00,61.1,57.8,30.16,SSE,148,0.0,0.0,89,0.00,,,0.00,Wunderground v.1.15,2013-07-13 07:40:00,
2013-07-13 03:46:00,60.8,57.5,30.16,SSE,148,0.0,0.0,89,0.00,,,0.00,Wunderground v.1.15,2013-07-13 07:46:00,
2013-07-13 03:54:00,60.5,57.6,30.16,SSE,148,0.0,0.0,90,0.00,,,0.00,Wunderground v.1.15,2013-07-13 07:54:00,
2013-07-13 04:00:00,60.0,57.1,30.15,SE,146,0.0,0.0,90,0.00,,,0.00,Wunderground v.1.15,2013-07-13 08:00:00,
2013-07-13 04:07:00,59.7,57.1,30.16,SSE,148,0.0,0.0,91,0.00,,,0.00,Wunderground v.1.15,2013-07-13 08:07:00,
2013-07-13 04:12:00,59.5,56.9,30.17,SSE,148,0.0,0.0,91,0.00,,,0.00,Wunderground v.1.15,2013-07-13 08:12:00,
2013-07-13 04:18:00,59.3,56.7,30.17,SE,146,0.0,0.0,91,0.00,,,0.00,Wunderground v.1.15,2013-07-13 08:18:00,
2013-07-13 04:23:00,59.1,56.8,30.17,SSE,148,0.0,0.0,92,0.00,,,0.00,Wunderground v.1.15,2013-07-13 08:23:00,
2013-07-13 04:28:00,59.0,56.7,30.17,SSE,148,0.0,0.0,92,0.00,,,0.00,Wunderground v.1.15,2013-07-13 08:28:00,
2013-07-13 04:34:00,59.0,56.7,30.17,SSE,148,0.0,0.0,92,0.00,,,0.00,Wunderground v.1.15,2013-07-13 08:34:00,
2013-07-13 04:39:00,59.0,56.7,30.17,SE,146,0.0,0.0,92,0.00,,,0.00,Wunderground v.1.15,2013-07-13 08:39:00,
2013-07-13 04:45:00,58.8,56.5,30.16,SSE,148,0.0,0.0,92,0.00,,,0.00,Wunderground v.1.15,2013-07-13 08:45:00,
2013-07-13 04:51:00,58.6,56.6,30.17,SSE,147,0.0,0.0,93,0.00,,,0.00,Wunderground v.1.15,2013-07-13 08:51:00,
2013-07-13 04:57:00,58.5,56.5,30.17,SE,146,0.0,0.0,93,0.00,,,0.00,Wunderground v.1.15,2013-07-13 08:57:00,
2013-07-13 05:02:00,58.4,56.4,30.17,SSE,148,0.0,0.0,93,0.00,,,0.00,Wunderground v.1.15,2013-07-13 09:02:00,
2013-07-13 05:07:00,58.3,56.3,30.17,SSE,148,0.0,0.0,93,0.00,,,0.00,Wunderground v.1.15,2013-07-13 09:07:00,
2013-07-13 05:12:00,58.1,56.1,30.18,SSE,148,0.0,0.0,93,0.00,,,0.00,Wunderground v.1.15,2013-07-13 09:12:00,
2013-07-13 05:18:00,58.2,56.5,30.18,SSE,148,0.0,0.0,94,0.00,,,0.00,Wunderground v.1.15,2013-07-13 09:18:00,
2013-07-13 05:24:00,58.1,56.4,30.18,SSE,147,0.0,0.0,94,0.00,,,0.00,Wunderground v.1.15,2013-07-13 09:24:00,
2013-07-13 05:29:00,58.1,56.4,30.18,SSE,148,0.0,0.0,94,0.00,,,0.00,Wunderground v.1.15,2013-07-13 09:29:00,
2013-07-13 05:36:00,58.0,56.3,30.18,SSE,148,0.0,0.0,94,0.00,,,0.00,Wunderground v.1.15,2013-07-13 09:36:00,
2013-07-13 05:41:00,57.8,56.1,30.18,SSE,148,0.0,0.0,94,0.00,,,0.00,Wunderground v.1.15,2013-07-13 09:41:00,
2013-07-13 05:47:00,57.6,55.9,30.18,SSE,148,0.0,0.0,94,0.00,,,0.00,Wunderground v.1.15,2013-07-13 09:47:00,
2013-07-13 05:52:00,57.5,55.8,30.18,SE,146,0.0,0.0,94,0.00,,,0.00,Wunderground v.1.15,2013-07-13 09:52:00,
2013-07-13 05:58:00,57.5,55.8,30.18,SSE,148,0.0,0.0,94,0.00,,,0.00,Wunderground v.1.15,2013-07-13 09:58:00,
2013-07-13 06:03:00,57.3,55.6,30.18,SSE,148,0.0,0.0,94,0.00,,,0.00,Wunderground v.1.15,2013-07-13 10:03:00,
2013-07-13 06:08:00,57.3,55.6,30.19,SE,146,0.0,0.0,94,0.00,,,0.00,Wunderground v.1.15,2013-07-13 10:08:00,
2013-07-13 06:14:00,57.1,55.4,30.19,SSE,147,0.0,0.0,94,0.00,,,0.00,Wunderground v.1.15,2013-07-13 10:14:00,
2013-07-13 06:19:00,57.1,55.4,30.19,SSE,148,0.0,0.0,94,0.00,,,0.00,Wunderground v.1.15,2013-07-13 10:19:00,
2013-07-13 06:25:00,57.0,55.3,30.20,SSE,148,0.0,0.0,94,0.00,,,0.00,Wunderground v.1.15,2013-07-13 10:25:00,
2013-07-13 06:31:00,57.0,55.6,30.20,SSE,148,0.0,0.0,95,0.00,,,0.00,Wunderground v.1.15,2013-07-13 10:31:00,
2013-07-13 06:37:00,57.1,55.7,30.19,SSE,147,0.0,0.0,95,0.00,,,0.00,Wunderground v.1.15,2013-07-13 10:37:00,
2013-07-13 06:43:00,57.2,55.8,30.19,SE,146,0.0,0.0,95,0.00,,,0.00,Wunderground v.1.15,2013-07-13 10:43:00,
2013-07-13 06:49:00,57.2,55.8,30.20,SSE,148,0.0,0.0,95,0.00,,,0.00,Wunderground v.1.15,2013-07-13 10:49:00,
2013-07-13 06:54:00,57.2,55.8,30.20,SSE,148,0.0,0.0,95,0.00,,,0.00,Wunderground v.1.15,2013-07-13 10:54:00,
2013-07-13 07:00:00,57.3,55.9,30.19,SSE,148,0.0,0.0,95,0.00,,,0.00,Wunderground v.1.15,2013-07-13 11:00:00,
2013-07-13 07:07:00,57.4,56.0,30.19,SSE,147,0.0,0.0,95,0.00,,,0.00,Wunderground v.1.15,2013-07-13 11:07:00,
2013-07-13 07:12:00,57.8,56.4,30.19,SE,146,0.0,0.0,95,0.00,,,0.00,Wunderground v.1.15,2013-07-13 11:12:00,
2013-07-13 07:18:00,58.6,57.5,30.19,SSE,148,0.0,0.0,96,0.00,,,0.00,Wunderground v.1.15,2013-07-13 11:18:00,
2013-07-13 07:24:00,59.0,57.9,30.19,SSE,148,0.0,0.0,96,0.00,,,0.00,Wunderground v.1.15,2013-07-13 11:24:00,
2013-07-13 07:30:00,59.8,58.7,30.19,SSE,147,0.0,0.0,96,0.00,,,0.00,Wunderground v.1.15,2013-07-13 11:30:00,
2013-07-13 07:35:00,60.2,59.3,30.19,SSE,148,0.0,0.0,97,0.00,,,0.00,Wunderground v.1.15,2013-07-13 11:35:00,
2013-07-13 07:40:00,60.7,59.8,30.19,SSE,148,0.0,0.0,97,0.00,,,0.00,Wunderground v.1.15,2013-07-13 11:40:00,
2013-07-13 07:45:00,61.2,60.3,30.19,SSE,148,0.0,0.0,97,0.00,,,0.00,Wunderground v.1.15,2013-07-13 11:45:00,
2013-07-13 07:51:00,61.8,60.9,30.19,SSE,148,0.0,0.0,97,0.00,,,0.00,Wunderground v.1.15,2013-07-13 11:51:00,
2013-07-13 07:57:00,62.4,61.5,30.19,SE,146,0.0,2.0,97,0.00,,,0.00,Wunderground v.1.15,2013-07-13 11:57:00,
2013-07-13 08:02:00,63.2,62.3,30.19,SSE,148,0.0,4.0,97,0.00,,,0.00,Wunderground v.1.15,2013-07-13 12:02:00,
2013-07-13 08:08:00,63.9,63.0,30.19,SE,144,0.0,0.0,97,0.00,,,0.00,Wunderground v.1.15,2013-07-13 12:08:00,
2013-07-13 08:13:00,64.3,63.1,30.19,SE,142,1.0,3.0,96,0.00,,,0.00,Wunderground v.1.15,2013-07-13 12:13:00,
2013-07-13 08:19:00,65.1,63.9,30.19,SSE,160,1.0,4.0,96,0.00,,,0.00,Wunderground v.1.15,2013-07-13 12:19:00,
2013-07-13 08:24:00,65.7,63.9,30.20,SE,138,2.0,4.0,94,0.00,,,0.00,Wunderground v.1.15,2013-07-13 12:24:00,
2013-07-13 08:30:00,66.3,64.2,30.19,SE,142,0.0,5.0,93,0.00,,,0.00,Wunderground v.1.15,2013-07-13 12:30:00,
2013-07-13 08:35:00,66.9,64.2,30.20,South,176,1.0,5.0,91,0.00,,,0.00,Wunderground v.1.15,2013-07-13 12:35:00,
2013-07-13 08:41:00,67.5,64.8,30.20,South,169,0.0,1.0,91,0.00,,,0.00,Wunderground v.1.15,2013-07-13 12:41:00,
2013-07-13 08:47:00,68.2,64.8,30.20,SSE,157,0.0,2.0,89,0.00,,,0.00,Wunderground v.1.15,2013-07-13 12:47:00,
2013-07-13 08:52:00,68.8,65.1,30.20,SE,126,1.0,2.0,88,0.00,,,0.00,Wunderground v.1.15,2013-07-13 12:52:00,
2013-07-13 08:58:00,69.8,65.1,30.20,SE,135,1.0,1.0,85,0.00,,,0.00,Wunderground v.1.15,2013-07-13 12:58:00,
2013-07-13 09:03:00,70.6,65.2,30.20,SE,130,1.0,2.0,83,0.00,,,0.00,Wunderground v.1.15,2013-07-13 13:03:00,
2013-07-13 09:08:00,71.3,65.2,30.20,SSE,148,1.0,1.0,81,0.00,,,0.00,Wunderground v.1.15,2013-07-13 13:08:00,
2013-07-13 09:13:00,71.9,65.0,30.20,SE,144,2.0,4.0,79,0.00,,,0.00,Wunderground v.1.15,2013-07-13 13:13:00,
2013-07-13 09:19:00,72.4,65.2,30.20,SSE,153,2.0,2.0,78,0.00,,,0.00,Wunderground v.1.15,2013-07-13 13:19:00,
2013-07-13 09:25:00,73.1,65.5,30.20,SE,144,1.0,3.0,77,0.00,,,0.00,Wunderground v.1.15,2013-07-13 13:25:00,
2013-07-13 09:30:00,73.7,65.7,30.21,SSE,147,1.0,1.0,76,0.00,,,0.00,Wunderground v.1.15,2013-07-13 13:30:00,
2013-07-13 09:35:00,74.3,65.1,30.21,SSE,150,0.0,1.0,73,0.00,,,0.00,Wunderground v.1.15,2013-07-13 13:35:00,
2013-07-13 09:40:00,74.8,64.4,30.21,SSE,149,0.0,0.0,70,0.00,,,0.00,Wunderground v.1.15,2013-07-13 13:40:00,
2013-07-13 09:46:00,75.4,65.3,30.21,SE,127,1.0,3.0,71,0.00,,,0.00,Wunderground v.1.15,2013-07-13 13:46:00,
2013-07-13 09:51:00,75.7,60.8,30.20,SE,133,2.0,4.0,60,0.00,,,0.00,Wunderground v.1.15,2013-07-13 13:51:00,
2013-07-13 09:57:00,75.7,61.8,30.20,South,178,3.0,5.0,62,0.00,,,0.00,Wunderground v.1.15,2013-07-13 13:57:00,
2013-07-13 10:02:00,75.8,60.4,30.21,SSE,164,2.0,6.0,59,0.00,,,0.00,Wunderground v.1.15,2013-07-13 14:02:00,
2013-07-13 10:08:00,75.9,61.0,30.21,SSW,192,3.0,4.0,60,0.00,,,0.00,Wunderground v.1.15,2013-07-13 14:08:00,
2013-07-13 10:13:00,75.8,60.4,30.21,SSE,152,4.0,10.0,59,0.00,,,0.00,Wunderground v.1.15,2013-07-13 14:13:00,
2013-07-13 10:19:00,75.8,60.9,30.20,South,178,4.0,4.0,60,0.00,,,0.00,Wunderground v.1.15,2013-07-13 14:19:00,
2013-07-13 10:24:00,76.1,61.7,30.20,SSW,192,3.0,4.0,61,0.00,,,0.00,Wunderground v.1.15,2013-07-13 14:24:00,
2013-07-13 10:30:00,76.6,61.2,30.20,SSW,194,2.0,5.0,59,0.00,,,0.00,Wunderground v.1.15,2013-07-13 14:30:00,
2013-07-13 10:35:00,76.9,62.0,30.20,SE,142,2.0,9.0,60,0.00,,,0.00,Wunderground v.1.15,2013-07-13 14:35:00,
2013-07-13 10:42:00,77.4,60.0,30.20,SSE,148,2.0,5.0,55,0.00,,,0.00,Wunderground v.1.15,2013-07-13 14:42:00,
2013-07-13 10:47:00,77.4,61.9,30.20,SSW,213,3.0,5.0,59,0.00,,,0.00,Wunderground v.1.15,2013-07-13 14:47:00,
2013-07-13 10:52:00,77.7,61.3,30.20,South,178,3.0,6.0,57,0.00,,,0.00,Wunderground v.1.15,2013-07-13 14:52:00,
2013-07-13 10:57:00,77.9,63.4,30.19,SSW,196,2.0,6.0,61,0.00,,,0.00,Wunderground v.1.15,2013-07-13 14:57:00,
2013-07-13 11:02:00,77.9,61.4,30.19,SSE,156,3.0,8.0,57,0.00,,,0.00,Wunderground v.1.15,2013-07-13 15:02:00,
2013-07-13 11:08:00,78.1,61.6,30.20,ESE,102,3.0,3.0,57,0.00,,,0.00,Wunderground v.1.15,2013-07-13 15:08:00,
2013-07-13 11:14:00,77.9,61.9,30.20,SSE,149,4.0,6.0,58,0.00,,,0.00,Wunderground v.1.15,2013-07-13 15:14:00,
2013-07-13 11:20:00,78.0,60.0,30.20,ENE,71,4.0,4.0,54,0.00,,,0.00,Wunderground v.1.15,2013-07-13 15:20:00,
2013-07-13 11:26:00,77.9,60.4,30.20,East,80,4.0,10.0,55,0.00,,,0.00,Wunderground v.1.15,2013-07-13 15:26:00,
2013-07-13 11:31:00,78.2,62.2,30.20,East,90,3.0,5.0,58,0.00,,,0.00,Wunderground v.1.15,2013-07-13 15:31:00,
2013-07-13 11:37:00,78.7,61.7,30.20,South,174,1.0,5.0,56,0.00,,,0.00,Wunderground v.1.15,2013-07-13 15:37:00,
2013-07-13 11:42:00,78.8,60.2,30.20,SE,145,2.0,5.0,53,0.00,,,0.00,Wunderground v.1.15,2013-07-13 15:42:00,
2013-07-13 11:48:00,78.9,60.8,30.20,SSW,198,2.0,2.0,54,0.00,,,0.00,Wunderground v.1.15,2013-07-13 15:48:00,
2013-07-13 11:53:00,79.3,62.7,30.20,South,182,1.0,2.0,57,0.00,,,0.00,Wunderground v.1.15,2013-07-13 15:53:00,
2013-07-13 11:59:00,79.8,61.1,30.20,ESE,117,1.0,3.0,53,0.00,,,0.00,Wunderground v.1.15,2013-07-13 15:59:00,
2013-07-13 12:04:00,80.2,62.6,30.20,East,86,1.0,3.0,55,0.00,,,0.00,Wunderground v.1.15,2013-07-13 16:04:00,
2013-07-13 12:10:00,80.3,63.2,30.20,SE,137,1.0,7.0,56,0.00,,,0.00,Wunderground v.1.15,2013-07-13 16:10:00,
2013-07-13 12:16:00,80.5,61.8,30.21,ENE,59,1.0,7.0,53,0.00,,,0.00,Wunderground v.1.15,2013-07-13 16:16:00,
2013-07-13 12:21:00,80.4,61.7,30.20,SE,142,1.0,4.0,53,0.00,,,0.00,Wunderground v.1.15,2013-07-13 16:21:00,
2013-07-13 12:27:00,80.3,62.1,30.20,South,169,1.0,4.0,54,0.00,,,0.00,Wunderground v.1.15,2013-07-13 16:27:00,
2013-07-13 12:32:00,80.4,61.7,30.20,SSE,167,1.0,1.0,53,0.00,,,0.00,Wunderground v.1.15,2013-07-13 16:32:00,
2013-07-13 12:38:00,80.8,62.1,30.20,SE,137,1.0,4.0,53,0.00,,,0.00,Wunderground v.1.15,2013-07-13 16:38:00,
2013-07-13 12:43:00,81.2,63.5,30.20,ENE,78,1.0,4.0,55,0.00,,,0.00,Wunderground v.1.15,2013-07-13 16:43:00,
2013-07-13 12:49:00,81.4,62.1,30.20,ENE,59,1.0,1.0,52,0.00,,,0.00,Wunderground v.1.15,2013-07-13 16:49:00,
2013-07-13 12:54:00,81.4,62.1,30.20,ENE,71,1.0,2.0,52,0.00,,,0.00,Wunderground v.1.15,2013-07-13 16:54:00,
2013-07-13 13:00:00,81.4,62.1,30.20,ESE,109,1.0,2.0,52,0.00,,,0.00,Wunderground v.1.15,2013-07-13 17:00:00,
2013-07-13 13:05:00,81.5,63.3,30.20,SE,135,1.0,3.0,54,0.00,,,0.00,Wunderground v.1.15,2013-07-13 17:05:00,
2013-07-13 13:10:00,81.4,61.0,30.19,East,84,1.0,4.0,50,0.00,,,0.00,Wunderground v.1.15,2013-07-13 17:10:00,
2013-07-13 13:15:00,81.5,61.6,30.19,SE,141,1.0,4.0,51,0.00,,,0.00,Wunderground v.1.15,2013-07-13 17:15:00,
2013-07-13 13:21:00,81.4,59.8,30.18,SE,142,1.0,5.0,48,0.00,,,0.00,Wunderground v.1.15,2013-07-13 17:21:00,
2013-07-13 13:27:00,81.2,61.4,30.18,South,180,2.0,7.0,51,0.00,,,0.00,Wunderground v.1.15,2013-07-13 17:27:00,
2013-07-13 13:33:00,81.1,61.3,30.18,ESE,118,2.0,3.0,51,0.00,,,0.00,Wunderground v.1.15,2013-07-13 17:33:00,
2013-07-13 13:39:00,81.3,60.3,30.19,SE,127,2.0,3.0,49,0.00,,,0.00,Wunderground v.1.15,2013-07-13 17:39:00,
2013-07-13 13:44:00,81.2,60.8,30.19,SSE,155,3.0,5.0,50,0.00,,,0.00,Wunderground v.1.15,2013-07-13 17:44:00,
2013-07-13 13:50:00,81.6,59.4,30.19,SSE,155,1.0,2.0,47,0.00,,,0.00,Wunderground v.1.15,2013-07-13 17:50:00,
2013-07-13 13:55:00,81.8,60.8,30.19,South,187,1.0,5.0,49,0.00,,,0.00,Wunderground v.1.15,2013-07-13 17:55:00,
2013-07-13 14:01:00,81.6,59.4,30.19,ENE,69,2.0,3.0,47,0.00,,,0.00,Wunderground v.1.15,2013-07-13 18:01:00,
2013-07-13 14:07:00,81.9,60.3,30.19,South,186,1.0,3.0,48,0.00,,,0.00,Wunderground v.1.15,2013-07-13 18:07:00,
2013-07-13 14:12:00,82.2,60.6,30.19,ENE,63,1.0,6.0,48,0.00,,,0.00,Wunderground v.1.15,2013-07-13 18:12:00,
2013-07-13 14:18:00,82.6,59.7,30.19,SSE,157,1.0,1.0,46,0.00,,,0.00,Wunderground v.1.15,2013-07-13 18:18:00,
2013-07-13 14:23:00,82.6,61.5,30.19,SE,144,1.0,1.0,49,0.00,,,0.00,Wunderground v.1.15,2013-07-13 18:23:00,
2013-07-13 14:28:00,82.7,59.8,30.19,SSE,150,1.0,2.0,46,0.00,,,0.00,Wunderground v.1.15,2013-07-13 18:28:00,
2013-07-13 14:33:00,82.7,59.2,30.19,SE,145,1.0,2.0,45,0.00,,,0.00,Wunderground v.1.15,2013-07-13 18:33:00,
2013-07-13 14:39:00,82.5,60.2,30.18,South,188,1.0,1.0,47,0.00,,,0.00,Wunderground v.1.15,2013-07-13 18:39:00,
2013-07-13 14:44:00,82.6,58.5,30.18,SE,133,1.0,6.0,44,0.00,,,0.00,Wunderground v.1.15,2013-07-13 18:44:00,
2013-07-13 14:50:00,82.7,60.4,30.18,SSW,196,1.0,1.0,47,0.00,,,0.00,Wunderground v.1.15,2013-07-13 18:50:00,
2013-07-13 14:55:00,82.7,59.8,30.18,SW,216,1.0,4.0,46,0.00,,,0.00,Wunderground v.1.15,2013-07-13 18:55:00,
2013-07-13 15:01:00,82.7,59.2,30.18,ESE,115,2.0,2.0,45,0.00,,,0.00,Wunderground v.1.15,2013-07-13 19:01:00,
2013-07-13 15:07:00,82.6,59.1,30.18,SW,224,2.0,2.0,45,0.00,,,0.00,Wunderground v.1.15,2013-07-13 19:07:00,
2013-07-13 15:12:00,82.8,60.5,30.18,SE,133,1.0,6.0,47,0.00,,,0.00,Wunderground v.1.15,2013-07-13 19:12:00,
2013-07-13 15:17:00,82.9,59.4,30.18,SE,142,2.0,7.0,45,0.00,,,0.00,Wunderground v.1.15,2013-07-13 19:17:00,
2013-07-13 15:23:00,83.1,60.8,30.18,SSE,160,2.0,2.0,47,0.00,,,0.00,Wunderground v.1.15,2013-07-13 19:23:00,
2013-07-13 15:29:00,83.4,60.4,30.18,SSW,207,1.0,3.0,46,0.00,,,0.00,Wunderground v.1.15,2013-07-13 19:29:00,
2013-07-13 15:34:00,83.5,61.7,30.18,SE,142,1.0,3.0,48,0.00,,,0.00,Wunderground v.1.15,2013-07-13 19:34:00,
2013-07-13 15:40:00,83.8,61.4,30.18,South,176,1.0,5.0,47,0.00,,,0.00,Wunderground v.1.15,2013-07-13 19:40:00,
2013-07-13 15:45:00,83.9,62.7,30.18,NE,56,1.0,5.0,49,0.00,,,0.00,Wunderground v.1.15,2013-07-13 19:45:00,
2013-07-13 15:50:00,84.3,61.9,30.18,ESE,117,1.0,3.0,47,0.00,,,0.00,Wunderground v.1.15,2013-07-13 19:50:00,
2013-07-13 15:55:00,84.3,61.3,30.17,ENE,64,1.0,4.0,46,0.00,,,0.00,Wunderground v.1.15,2013-07-13 19:55:00,
2013-07-13 16:01:00,84.4,62.0,30.17,South,190,1.0,5.0,47,0.00,,,0.00,Wunderground v.1.15,2013-07-13 20:01:00,
2013-07-13 16:07:00,84.4,60.7,30.18,SSW,213,2.0,5.0,45,0.00,,,0.00,Wunderground v.1.15,2013-07-13 20:07:00,
2013-07-13 16:13:00,84.4,61.4,30.17,SSW,210,2.0,2.0,46,0.00,,,0.00,Wunderground v.1.15,2013-07-13 20:13:00,
2013-07-13 16:19:00,84.5,63.2,30.17,SSE,163,1.0,1.0,49,0.00,,,0.00,Wunderground v.1.15,2013-07-13 20:19:00,
2013-07-13 16:24:00,84.6,62.1,30.17,SE,134,2.0,7.0,47,0.00,,,0.00,Wunderground v.1.15,2013-07-13 20:24:00,
2013-07-13 16:30:00,84.3,61.9,30.17,SSE,167,2.0,2.0,47,0.00,,,0.00,Wunderground v.1.15,2013-07-13 20:30:00,
2013-07-13 16:35:00,84.3,63.1,30.17,SSE,168,1.0,2.0,49,0.00,,,0.00,Wunderground v.1.15,2013-07-13 20:35:00,
2013-07-13 16:41:00,84.5,62.1,30.17,SW,223,0.0,5.0,47,0.00,,,0.00,Wunderground v.1.15,2013-07-13 20:41:00,
2013-07-13 16:47:00,84.4,60.7,30.17,East,91,2.0,5.0,45,0.00,,,0.00,Wunderground v.1.15,2013-07-13 20:47:00,
2013-07-13 16:52:00,84.3,61.3,30.17,SSW,204,3.0,4.0,46,0.00,,,0.00,Wunderground v.1.15,2013-07-13 20:52:00,
2013-07-13 16:58:00,84.3,61.3,30.17,SSW,196,2.0,2.0,46,0.00,,,0.00,Wunderground v.1.15,2013-07-13 20:58:00,
2013-07-13 17:03:00,84.3,61.9,30.17,SE,138,1.0,2.0,47,0.00,,,0.00,Wunderground v.1.15,2013-07-13 21:03:00,
2013-07-13 17:09:00,84.3,61.9,30.17,SSW,208,1.0,5.0,47,0.00,,,0.00,Wunderground v.1.15,2013-07-13 21:09:00,
2013-07-13 17:14:00,84.3,61.9,30.17,SSW,194,2.0,6.0,47,0.00,,,0.00,Wunderground v.1.15,2013-07-13 21:14:00,
2013-07-13 17:20:00,84.5,61.4,30.17,SSW,212,1.0,3.0,46,0.00,,,0.00,Wunderground v.1.15,2013-07-13 21:20:00,
2013-07-13 17:25:00,84.5,62.1,30.17,South,191,2.0,3.0,47,0.00,,,0.00,Wunderground v.1.15,2013-07-13 21:25:00,
2013-07-13 17:31:00,84.4,62.0,30.17,South,171,2.0,2.0,47,0.00,,,0.00,Wunderground v.1.15,2013-07-13 21:31:00,
2013-07-13 17:37:00,84.5,61.4,30.17,South,180,1.0,2.0,46,0.00,,,0.00,Wunderground v.1.15,2013-07-13 21:37:00,
2013-07-13 17:42:00,84.8,61.7,30.17,East,83,1.0,5.0,46,0.00,,,0.00,Wunderground v.1.15,2013-07-13 21:42:00,
2013-07-13 17:47:00,84.9,62.4,30.17,SSW,207,1.0,1.0,47,0.00,,,0.00,Wunderground v.1.15,2013-07-13 21:47:00,
2013-07-13 17:53:00,84.8,62.9,30.17,SSW,194,1.0,1.0,48,0.00,,,0.00,Wunderground v.1.15,2013-07-13 21:53:00,
2013-07-13 17:58:00,84.9,61.8,30.17,SSE,160,1.0,1.0,46,0.00,,,0.00,Wunderground v.1.15,2013-07-13 21:58:00,
2013-07-13 18:03:00,85.1,63.8,30.17,SW,217,0.0,1.0,49,0.00,,,0.00,Wunderground v.1.15,2013-07-13 22:03:00,
2013-07-13 18:09:00,85.0,61.9,30.17,SE,145,1.0,4.0,46,0.00,,,0.00,Wunderground v.1.15,2013-07-13 22:09:00,
2013-07-13 18:14:00,84.8,62.9,30.17,SE,133,1.0,9.0,48,0.00,,,0.00,Wunderground v.1.15,2013-07-13 22:14:00,
2013-07-13 18:20:00,84.0,61.0,30.17,SSE,161,2.0,3.0,46,0.00,,,0.00,Wunderground v.1.15,2013-07-13 22:20:00,
2013-07-13 18:26:00,83.9,61.5,30.17,SE,140,2.0,3.0,47,0.00,,,0.00,Wunderground v.1.15,2013-07-13 22:26:00,
2013-07-13 18:31:00,83.7,60.7,30.17,South,184,2.0,3.0,46,0.00,,,0.00,Wunderground v.1.15,2013-07-13 22:31:00,
2013-07-13 18:37:00,83.6,61.2,30.17,SSE,163,2.0,2.0,47,0.00,,,0.00,Wunderground v.1.15,2013-07-13 22:37:00,
2013-07-13 18:42:00,83.6,61.2,30.17,SE,144,1.0,2.0,47,0.00,,,0.00,Wunderground v.1.15,2013-07-13 22:42:00,
2013-07-13 18:48:00,83.8,61.4,30.17,SE,140,1.0,2.0,47,0.00,,,0.00,Wunderground v.1.15,2013-07-13 22:48:00,
2013-07-13 18:53:00,83.8,61.4,30.17,SE,137,1.0,3.0,47,0.00,,,0.00,Wunderground v.1.15,2013-07-13 22:53:00,
2013-07-13 18:59:00,83.7,62.5,30.17,SW,217,1.0,3.0,49,0.00,,,0.00,Wunderground v.1.15,2013-07-13 22:59:00,
2013-07-13 19:04:00,83.4,62.2,30.17,South,171,1.0,3.0,49,0.00,,,0.00,Wunderground v.1.15,2013-07-13 23:04:00,
2013-07-13 19:09:00,83.1,61.4,30.17,SE,145,1.0,1.0,48,0.00,,,0.00,Wunderground v.1.15,2013-07-13 23:09:00,
2013-07-13 19:14:00,82.8,61.7,30.17,SSE,157,2.0,3.0,49,0.00,,,0.00,Wunderground v.1.15,2013-07-13 23:14:00,
2013-07-13 19:20:00,82.6,62.1,30.17,SSW,202,1.0,1.0,50,0.00,,,0.00,Wunderground v.1.15,2013-07-13 23:20:00,
2013-07-13 19:25:00,82.6,62.1,30.17,South,184,1.0,6.0,50,0.00,,,0.00,Wunderground v.1.15,2013-07-13 23:25:00,
2013-07-13 19:31:00,82.3,61.8,30.17,South,171,2.0,2.0,50,0.00,,,0.00,Wunderground v.1.15,2013-07-13 23:31:00,
2013-07-13 19:37:00,82.2,61.7,30.17,South,190,1.0,2.0,50,0.00,,,0.00,Wunderground v.1.15,2013-07-13 23:37:00,
2013-07-13 19:43:00,82.1,62.2,30.17,South,175,0.0,1.0,51,0.00,,,0.00,Wunderground v.1.15,2013-07-13 23:43:00,
2013-07-13 19:49:00,82.0,61.5,30.17,South,170,0.0,0.0,50,0.00,,,0.00,Wunderground v.1.15,2013-07-13 23:49:00,
2013-07-13 19:54:00,81.7,61.8,30.17,South,174,1.0,2.0,51,0.00,,,0.00,Wunderground v.1.15,2013-07-13 23:54:00,
2013-07-13 19:59:00,81.4,62.1,30.17,South,175,0.0,0.0,52,0.00,,,0.00,Wunderground v.1.15,2013-07-13 23:59:00,
2013-07-13 20:05:00,81.0,61.2,30.17,SSE,157,0.0,2.0,51,0.00,,,0.00,Wunderground v.1.15,2013-07-14 00:05:00,
2013-07-13 20:10:00,80.7,62.0,30.17,SSE,156,1.0,1.0,53,0.00,,,0.00,Wunderground v.1.15,2013-07-14 00:10:00,
2013-07-13 20:15:00,80.4,62.2,30.17,SSE,157,1.0,1.0,54,0.00,,,0.00,Wunderground v.1.15,2013-07-14 00:15:00,
2013-07-13 20:22:00,80.0,62.4,30.17,SSE,157,0.0,0.0,55,0.00,,,0.00,Wunderground v.1.15,2013-07-14 00:22:00,
2013-07-13 20:27:00,79.7,62.1,30.17,SSE,157,0.0,0.0,55,0.00,,,0.00,Wunderground v.1.15,2013-07-14 00:27:00,
2013-07-13 20:32:00,79.4,62.3,30.17,SSE,156,0.0,0.0,56,0.00,,,0.00,Wunderground v.1.15,2013-07-14 00:32:00,
2013-07-13 20:38:00,79.2,62.1,30.17,SSE,155,0.0,0.0,56,0.00,,,0.00,Wunderground v.1.15,2013-07-14 00:38:00,
2013-07-13 20:43:00,79.0,62.5,30.17,SSE,155,0.0,0.0,57,0.00,,,0.00,Wunderground v.1.15,2013-07-14 00:43:00,
2013-07-13 20:49:00,78.7,63.2,30.17,SSE,155,0.0,0.0,59,0.00,,,0.00,Wunderground v.1.15,2013-07-14 00:49:00,
2013-07-13 20:54:00,78.2,63.2,30.18,SSE,155,0.0,2.0,60,0.00,,,0.00,Wunderground v.1.15,2013-07-14 00:54:00,
2013-07-13 21:00:00,77.8,63.7,30.18,SSE,153,0.0,0.0,62,0.00,,,0.00,Wunderground v.1.15,2013-07-14 01:00:00,
2013-07-13 21:05:00,77.5,63.5,30.18,SSE,150,0.0,1.0,62,0.00,,,0.00,Wunderground v.1.15,2013-07-14 01:05:00,
2013-07-13 21:10:00,77.3,63.7,30.18,SSE,150,0.0,0.0,63,0.00,,,0.00,Wunderground v.1.15,2013-07-14 01:10:00,
2013-07-13 21:15:00,77.0,63.9,30.18,SSE,150,0.0,1.0,64,0.00,,,0.00,Wunderground v.1.15,2013-07-14 01:15:00,
2013-07-13 21:22:00,76.7,64.0,30.18,SSE,150,0.0,0.0,65,0.00,,,0.00,Wunderground v.1.15,2013-07-14 01:22:00,
2013-07-13 21:27:00,76.4,64.2,30.18,SSE,150,0.0,0.0,66,0.00,,,0.00,Wunderground v.1.15,2013-07-14 01:27:00,
2013-07-13 21:32:00,76.2,64.0,30.18,SE,144,0.0,1.0,66,0.00,,,0.00,Wunderground v.1.15,2013-07-14 01:32:00,
2013-07-13 21:38:00,75.9,64.2,30.18,SE,144,1.0,1.0,67,0.00,,,0.00,Wunderground v.1.15,2013-07-14 01:38:00,
2013-07-13 21:43:00,75.7,64.0,30.19,SE,144,0.0,1.0,67,0.00,,,0.00,Wunderground v.1.15,2013-07-14 01:43:00,
2013-07-13 21:48:00,75.5,64.2,30.19,SE,144,0.0,0.0,68,0.00,,,0.00,Wunderground v.1.15,2013-07-14 01:48:00,
2013-07-13 21:54:00,75.2,64.3,30.19,SE,144,0.0,4.0,69,0.00,,,0.00,Wunderground v.1.15,2013-07-14 01:54:00,
2013-07-13 22:00:00,75.1,64.2,30.20,SE,144,0.0,0.0,69,0.00,,,0.00,Wunderground v.1.15,2013-07-14 02:00:00,
2013-07-13 22:05:00,74.9,64.0,30.20,SE,144,0.0,0.0,69,0.00,,,0.00,Wunderground v.1.15,2013-07-14 02:05:00,
2013-07-13 22:12:00,74.8,64.4,30.19,SSE,147,0.0,1.0,70,0.00,,,0.00,Wunderground v.1.15,2013-07-14 02:12:00,
2013-07-13 22:17:00,74.7,64.7,30.19,SSE,160,1.0,4.0,71,0.00,,,0.00,Wunderground v.1.15,2013-07-14 02:17:00,
2013-07-13 22:23:00,74.5,64.9,30.19,South,175,1.0,4.0,72,0.00,,,0.00,Wunderground v.1.15,2013-07-14 02:23:00,
2013-07-13 22:28:00,74.4,65.2,30.20,South,169,1.0,1.0,73,0.00,,,0.00,Wunderground v.1.15,2013-07-14 02:28:00,
2013-07-13 22:33:00,74.3,65.1,30.20,SSE,167,1.0,2.0,73,0.00,,,0.00,Wunderground v.1.15,2013-07-14 02:33:00,
2013-07-13 22:39:00,74.1,64.9,30.20,South,169,1.0,1.0,73,0.00,,,0.00,Wunderground v.1.15,2013-07-14 02:39:00,
2013-07-13 22:44:00,74.0,64.8,30.20,SSE,167,0.0,1.0,73,0.00,,,0.00,Wunderground v.1.15,2013-07-14 02:44:00,
2013-07-13 22:50:00,73.9,65.1,30.20,SSE,167,0.0,0.0,74,0.00,,,0.00,Wunderground v.1.15,2013-07-14 02:50:00,
2013-07-13 22:55:00,73.8,65.0,30.21,SSE,167,0.0,0.0,74,0.00,,,0.00,Wunderground v.1.15,2013-07-14 02:55:00,
2013-07-13 23:01:00,73.5,64.7,30.21,SSE,167,0.0,0.0,74,0.00,,,0.00,Wunderground v.1.15,2013-07-14 03:01:00,
2013-07-13 23:07:00,73.2,64.8,30.21,SSE,163,1.0,2.0,75,0.00,,,0.00,Wunderground v.1.15,2013-07-14 03:07:00,
2013-07-13 23:12:00,73.1,64.7,30.21,SSE,161,1.0,1.0,75,0.00,,,0.00,Wunderground v.1.15,2013-07-14 03:12:00,
2013-07-13 23:18:00,73.1,64.7,30.21,SSE,162,1.0,1.0,75,0.00,,,0.00,Wunderground v.1.15,2013-07-14 03:18:00,
2013-07-13 23:23:00,73.1,64.7,30.21,SSE,161,1.0,2.0,75,0.00,,,0.00,Wunderground v.1.15,2013-07-14 03:23:00,
2013-07-13 23:28:00,73.0,65.0,30.21,SSE,161,0.0,0.0,76,0.00,,,0.00,Wunderground v.1.15,2013-07-14 03:28:00,
2013-07-13 23:33:00,72.9,64.9,30.21,SSE,161,0.0,0.0,76,0.00,,,0.00,Wunderground v.1.15,2013-07-14 03:33:00,
2013-07-13 23:39:00,72.7,65.1,30.21,SSE,155,0.0,3.0,77,0.00,,,0.00,Wunderground v.1.15,2013-07-14 03:39:00,
2013-07-13 23:44:00,72.6,65.0,30.21,SSE,155,0.0,3.0,77,0.00,,,0.00,Wunderground v.1.15,2013-07-14 03:44:00,
2013-07-13 23:50:00,72.4,64.8,30.21,SSE,155,0.0,0.0,77,0.00,,,0.00,Wunderground v.1.15,2013-07-14 03:50:00,
2013-07-13 23:55:00,72.2,65.0,30.22,SSE,155,0.0,0.0,78,0.00,,,0.00,Wunderground v.1.15,2013-07-14 03:55:00,